Year,Month,Day,Hour,Minute,Value (Times are PST for insolation in W/m^2)
2015,12,02,00,00,0.00
2015,12,02,00,01,0.00
2015,12,02,00,02,0.00
2015,12,02,00,03,0.00
2015,12,02,00,04,0.00
2015,12,02,00,05,0.00
2015,12,02,00,06,0.00
2015,12,02,00,07,0.00
2015,12,02,00,08,0.00
2015,12,02,00,09,0.00
2015,12,02,00,10,0.00
2015,12,02,00,11,0.00
2015,12,02,00,12,0.00
2015,12,02,00,13,0.00
2015,12,02,00,14,0.00
2015,12,02,00,15,0.00
2015,12,02,00,16,0.00
2015,12,02,00,17,0.00
2015,12,02,00,18,0.00
2015,12,02,00,19,0.00
2015,12,02,00,20,0.00
2015,12,02,00,21,0.00
2015,12,02,00,22,0.00
2015,12,02,00,23,0.00
2015,12,02,00,24,0.00
2015,12,02,00,25,0.00
2015,12,02,00,26,0.00
2015,12,02,00,27,0.00
2015,12,02,00,28,0.00
2015,12,02,00,29,0.00
2015,12,02,00,30,0.00
2015,12,02,00,31,0.00
2015,12,02,00,32,0.00
2015,12,02,00,33,0.00
2015,12,02,00,34,0.00
2015,12,02,00,35,0.00
2015,12,02,00,36,0.00
2015,12,02,00,37,0.00
2015,12,02,00,38,0.00
2015,12,02,00,39,0.00
2015,12,02,00,40,0.00
2015,12,02,00,41,0.00
2015,12,02,00,42,0.00
2015,12,02,00,43,0.00
2015,12,02,00,44,0.00
2015,12,02,00,45,0.00
2015,12,02,00,46,0.00
2015,12,02,00,47,0.00
2015,12,02,00,48,0.00
2015,12,02,00,49,0.00
2015,12,02,00,50,0.00
2015,12,02,00,51,0.00
2015,12,02,00,52,0.00
2015,12,02,00,53,0.00
2015,12,02,00,54,0.00
2015,12,02,00,55,0.00
2015,12,02,00,56,0.00
2015,12,02,00,57,0.00
2015,12,02,00,58,0.00
2015,12,02,00,59,0.00
2015,12,02,01,00,0.00
2015,12,02,01,01,0.00
2015,12,02,01,02,0.00
2015,12,02,01,03,0.00
2015,12,02,01,04,0.00
2015,12,02,01,05,0.00
2015,12,02,01,06,0.00
2015,12,02,01,07,0.00
2015,12,02,01,08,0.00
2015,12,02,01,09,0.00
2015,12,02,01,10,0.00
2015,12,02,01,11,0.00
2015,12,02,01,12,0.00
2015,12,02,01,13,0.00
2015,12,02,01,14,0.00
2015,12,02,01,15,0.00
2015,12,02,01,16,0.00
2015,12,02,01,17,0.00
2015,12,02,01,18,0.00
2015,12,02,01,19,0.00
2015,12,02,01,20,0.00
2015,12,02,01,21,0.00
2015,12,02,01,22,0.00
2015,12,02,01,23,0.00
2015,12,02,01,24,0.00
2015,12,02,01,25,0.00
2015,12,02,01,26,0.00
2015,12,02,01,27,0.00
2015,12,02,01,28,0.00
2015,12,02,01,29,0.00
2015,12,02,01,30,0.00
2015,12,02,01,31,0.00
2015,12,02,01,32,0.00
2015,12,02,01,33,0.00
2015,12,02,01,34,0.00
2015,12,02,01,35,0.00
2015,12,02,01,36,0.00
2015,12,02,01,37,0.00
2015,12,02,01,38,0.00
2015,12,02,01,39,0.00
2015,12,02,01,40,0.00
2015,12,02,01,41,0.00
2015,12,02,01,42,0.00
2015,12,02,01,43,0.00
2015,12,02,01,44,0.00
2015,12,02,01,45,0.00
2015,12,02,01,46,0.00
2015,12,02,01,47,0.00
2015,12,02,01,48,0.00
2015,12,02,01,49,0.00
2015,12,02,01,50,0.00
2015,12,02,01,51,0.00
2015,12,02,01,52,0.00
2015,12,02,01,53,0.00
2015,12,02,01,54,0.00
2015,12,02,01,55,0.00
2015,12,02,01,56,0.00
2015,12,02,01,57,0.00
2015,12,02,01,58,0.00
2015,12,02,01,59,0.00
2015,12,02,02,00,0.00
2015,12,02,02,01,0.00
2015,12,02,02,02,0.00
2015,12,02,02,03,0.00
2015,12,02,02,04,0.00
2015,12,02,02,05,0.00
2015,12,02,02,06,0.00
2015,12,02,02,07,0.00
2015,12,02,02,08,0.00
2015,12,02,02,09,0.00
2015,12,02,02,10,0.00
2015,12,02,02,11,0.00
2015,12,02,02,12,0.00
2015,12,02,02,13,0.00
2015,12,02,02,14,0.00
2015,12,02,02,15,0.00
2015,12,02,02,16,0.00
2015,12,02,02,17,0.00
2015,12,02,02,18,0.00
2015,12,02,02,19,0.00
2015,12,02,02,20,0.00
2015,12,02,02,21,0.00
2015,12,02,02,22,0.00
2015,12,02,02,23,0.00
2015,12,02,02,24,0.00
2015,12,02,02,25,0.00
2015,12,02,02,26,0.00
2015,12,02,02,27,0.00
2015,12,02,02,28,0.00
2015,12,02,02,29,0.00
2015,12,02,02,30,0.00
2015,12,02,02,31,0.00
2015,12,02,02,32,0.00
2015,12,02,02,33,0.00
2015,12,02,02,34,0.00
2015,12,02,02,35,0.00
2015,12,02,02,36,0.00
2015,12,02,02,37,0.00
2015,12,02,02,38,0.00
2015,12,02,02,39,0.00
2015,12,02,02,40,0.00
2015,12,02,02,41,0.00
2015,12,02,02,42,0.00
2015,12,02,02,43,0.00
2015,12,02,02,44,0.00
2015,12,02,02,45,0.00
2015,12,02,02,46,0.00
2015,12,02,02,47,0.00
2015,12,02,02,48,0.00
2015,12,02,02,49,0.00
2015,12,02,02,50,0.00
2015,12,02,02,51,0.00
2015,12,02,02,52,0.00
2015,12,02,02,53,0.00
2015,12,02,02,54,0.00
2015,12,02,02,55,0.00
2015,12,02,02,56,0.00
2015,12,02,02,57,0.00
2015,12,02,02,58,0.00
2015,12,02,02,59,0.00
2015,12,02,03,00,0.00
2015,12,02,03,01,0.00
2015,12,02,03,02,0.00
2015,12,02,03,03,0.00
2015,12,02,03,04,0.00
2015,12,02,03,05,0.00
2015,12,02,03,06,0.00
2015,12,02,03,07,0.00
2015,12,02,03,08,0.00
2015,12,02,03,09,0.00
2015,12,02,03,10,0.00
2015,12,02,03,11,0.00
2015,12,02,03,12,0.00
2015,12,02,03,13,0.00
2015,12,02,03,14,0.00
2015,12,02,03,15,0.00
2015,12,02,03,16,0.00
2015,12,02,03,17,0.00
2015,12,02,03,18,0.00
2015,12,02,03,19,0.00
2015,12,02,03,20,0.00
2015,12,02,03,21,0.00
2015,12,02,03,22,0.00
2015,12,02,03,23,0.00
2015,12,02,03,24,0.00
2015,12,02,03,25,0.00
2015,12,02,03,26,0.00
2015,12,02,03,27,0.00
2015,12,02,03,28,0.00
2015,12,02,03,29,0.00
2015,12,02,03,30,0.00
2015,12,02,03,31,0.00
2015,12,02,03,32,0.00
2015,12,02,03,33,0.00
2015,12,02,03,34,0.00
2015,12,02,03,35,0.00
2015,12,02,03,36,0.00
2015,12,02,03,37,0.00
2015,12,02,03,38,0.00
2015,12,02,03,39,0.00
2015,12,02,03,40,0.00
2015,12,02,03,41,0.00
2015,12,02,03,42,0.00
2015,12,02,03,43,0.00
2015,12,02,03,44,0.00
2015,12,02,03,45,0.00
2015,12,02,03,46,0.00
2015,12,02,03,47,0.00
2015,12,02,03,48,0.00
2015,12,02,03,49,0.00
2015,12,02,03,50,0.00
2015,12,02,03,51,0.00
2015,12,02,03,52,0.00
2015,12,02,03,53,0.00
2015,12,02,03,54,0.00
2015,12,02,03,55,0.00
2015,12,02,03,56,0.00
2015,12,02,03,57,0.00
2015,12,02,03,58,0.00
2015,12,02,03,59,0.00
2015,12,02,04,00,0.00
2015,12,02,04,01,0.00
2015,12,02,04,02,0.00
2015,12,02,04,03,0.00
2015,12,02,04,04,0.00
2015,12,02,04,05,0.00
2015,12,02,04,06,0.00
2015,12,02,04,07,0.00
2015,12,02,04,08,0.00
2015,12,02,04,09,0.00
2015,12,02,04,10,0.00
2015,12,02,04,11,0.00
2015,12,02,04,12,0.00
2015,12,02,04,13,0.00
2015,12,02,04,14,0.00
2015,12,02,04,15,0.00
2015,12,02,04,16,0.00
2015,12,02,04,17,0.00
2015,12,02,04,18,0.00
2015,12,02,04,19,0.00
2015,12,02,04,20,0.00
2015,12,02,04,21,0.00
2015,12,02,04,22,0.00
2015,12,02,04,23,0.00
2015,12,02,04,24,0.00
2015,12,02,04,25,0.00
2015,12,02,04,26,0.00
2015,12,02,04,27,0.00
2015,12,02,04,28,0.00
2015,12,02,04,29,0.00
2015,12,02,04,30,0.00
2015,12,02,04,31,0.00
2015,12,02,04,32,0.00
2015,12,02,04,33,0.00
2015,12,02,04,34,0.00
2015,12,02,04,35,0.00
2015,12,02,04,36,0.00
2015,12,02,04,37,0.00
2015,12,02,04,38,0.00
2015,12,02,04,39,0.00
2015,12,02,04,40,0.00
2015,12,02,04,41,0.00
2015,12,02,04,42,0.00
2015,12,02,04,43,0.00
2015,12,02,04,44,0.00
2015,12,02,04,45,0.00
2015,12,02,04,46,0.00
2015,12,02,04,47,0.00
2015,12,02,04,48,0.00
2015,12,02,04,49,0.00
2015,12,02,04,50,0.00
2015,12,02,04,51,0.00
2015,12,02,04,52,0.00
2015,12,02,04,53,0.00
2015,12,02,04,54,0.00
2015,12,02,04,55,0.00
2015,12,02,04,56,0.00
2015,12,02,04,57,0.00
2015,12,02,04,58,0.00
2015,12,02,04,59,0.00
2015,12,02,05,00,0.00
2015,12,02,05,01,0.00
2015,12,02,05,02,0.00
2015,12,02,05,03,0.00
2015,12,02,05,04,0.00
2015,12,02,05,05,0.00
2015,12,02,05,06,0.00
2015,12,02,05,07,0.00
2015,12,02,05,08,0.00
2015,12,02,05,09,0.00
2015,12,02,05,10,0.00
2015,12,02,05,11,0.00
2015,12,02,05,12,0.00
2015,12,02,05,13,0.00
2015,12,02,05,14,0.00
2015,12,02,05,15,0.00
2015,12,02,05,16,0.00
2015,12,02,05,17,0.00
2015,12,02,05,18,0.00
2015,12,02,05,19,0.00
2015,12,02,05,20,0.00
2015,12,02,05,21,0.00
2015,12,02,05,22,0.00
2015,12,02,05,23,0.00
2015,12,02,05,24,0.00
2015,12,02,05,25,0.00
2015,12,02,05,26,0.00
2015,12,02,05,27,0.00
2015,12,02,05,28,0.00
2015,12,02,05,29,0.00
2015,12,02,05,30,0.00
2015,12,02,05,31,0.00
2015,12,02,05,32,0.00
2015,12,02,05,33,0.00
2015,12,02,05,34,0.00
2015,12,02,05,35,0.00
2015,12,02,05,36,0.00
2015,12,02,05,37,0.00
2015,12,02,05,38,0.00
2015,12,02,05,39,0.00
2015,12,02,05,40,0.00
2015,12,02,05,41,0.00
2015,12,02,05,42,0.00
2015,12,02,05,43,0.00
2015,12,02,05,44,0.00
2015,12,02,05,45,0.00
2015,12,02,05,46,0.00
2015,12,02,05,47,0.00
2015,12,02,05,48,0.00
2015,12,02,05,49,0.00
2015,12,02,05,50,0.00
2015,12,02,05,51,0.00
2015,12,02,05,52,0.00
2015,12,02,05,53,0.00
2015,12,02,05,54,0.00
2015,12,02,05,55,0.00
2015,12,02,05,56,0.00
2015,12,02,05,57,0.00
2015,12,02,05,58,0.00
2015,12,02,05,59,0.00
2015,12,02,06,00,0.00
2015,12,02,06,01,0.00
2015,12,02,06,02,0.00
2015,12,02,06,03,0.00
2015,12,02,06,04,0.00
2015,12,02,06,05,0.00
2015,12,02,06,06,0.00
2015,12,02,06,07,0.00
2015,12,02,06,08,0.00
2015,12,02,06,09,0.00
2015,12,02,06,10,0.00
2015,12,02,06,11,0.00
2015,12,02,06,12,0.00
2015,12,02,06,13,0.00
2015,12,02,06,14,0.00
2015,12,02,06,15,0.00
2015,12,02,06,16,0.00
2015,12,02,06,17,0.00
2015,12,02,06,18,0.00
2015,12,02,06,19,0.00
2015,12,02,06,20,0.00
2015,12,02,06,21,0.00
2015,12,02,06,22,0.00
2015,12,02,06,23,0.00
2015,12,02,06,24,0.00
2015,12,02,06,25,0.00
2015,12,02,06,26,0.00
2015,12,02,06,27,0.00
2015,12,02,06,28,0.00
2015,12,02,06,29,0.00
2015,12,02,06,30,0.00
2015,12,02,06,31,0.00
2015,12,02,06,32,0.00
2015,12,02,06,33,0.00
2015,12,02,06,34,0.00
2015,12,02,06,35,0.00
2015,12,02,06,36,0.00
2015,12,02,06,37,0.00
2015,12,02,06,38,0.00
2015,12,02,06,39,0.00
2015,12,02,06,40,0.00
2015,12,02,06,41,0.00
2015,12,02,06,42,0.00
2015,12,02,06,43,0.00
2015,12,02,06,44,0.00
2015,12,02,06,45,0.00
2015,12,02,06,46,0.00
2015,12,02,06,47,0.00
2015,12,02,06,48,0.00
2015,12,02,06,49,0.00
2015,12,02,06,50,0.00
2015,12,02,06,51,0.00
2015,12,02,06,52,0.00
2015,12,02,06,53,0.00
2015,12,02,06,54,0.00
2015,12,02,06,55,0.00
2015,12,02,06,56,0.00
2015,12,02,06,57,0.00
2015,12,02,06,58,0.00
2015,12,02,06,59,0.00
2015,12,02,07,00,0.00
2015,12,02,07,01,0.00
2015,12,02,07,02,0.00
2015,12,02,07,03,0.00
2015,12,02,07,04,0.00
2015,12,02,07,05,0.00
2015,12,02,07,06,0.00
2015,12,02,07,07,0.00
2015,12,02,07,08,0.00
2015,12,02,07,09,0.00
2015,12,02,07,10,0.00
2015,12,02,07,11,0.00
2015,12,02,07,12,0.00
2015,12,02,07,13,0.00
2015,12,02,07,14,0.00
2015,12,02,07,15,0.00
2015,12,02,07,16,0.00
2015,12,02,07,17,0.00
2015,12,02,07,18,0.00
2015,12,02,07,19,0.00
2015,12,02,07,20,0.00
2015,12,02,07,21,0.00
2015,12,02,07,22,0.00
2015,12,02,07,23,0.00
2015,12,02,07,24,0.00
2015,12,02,07,25,0.00
2015,12,02,07,26,0.00
2015,12,02,07,27,0.00
2015,12,02,07,28,0.00
2015,12,02,07,29,0.00
2015,12,02,07,30,0.00
2015,12,02,07,31,0.00
2015,12,02,07,32,0.00
2015,12,02,07,33,0.00
2015,12,02,07,34,0.00
2015,12,02,07,35,0.00
2015,12,02,07,36,0.00
2015,12,02,07,37,0.00
2015,12,02,07,38,0.00
2015,12,02,07,39,0.00
2015,12,02,07,40,0.00
2015,12,02,07,41,0.00
2015,12,02,07,42,0.00
2015,12,02,07,43,0.00
2015,12,02,07,44,0.00
2015,12,02,07,45,0.00
2015,12,02,07,46,0.00
2015,12,02,07,47,0.00
2015,12,02,07,48,0.00
2015,12,02,07,49,0.00
2015,12,02,07,50,0.00
2015,12,02,07,51,0.00
2015,12,02,07,52,0.00
2015,12,02,07,53,0.00
2015,12,02,07,54,0.00
2015,12,02,07,55,0.00
2015,12,02,07,56,0.00
2015,12,02,07,57,0.00
2015,12,02,07,58,0.00
2015,12,02,07,59,0.00
2015,12,02,08,00,0.00
2015,12,02,08,01,0.00
2015,12,02,08,02,3.80
2015,12,02,08,03,5.00
2015,12,02,08,04,5.00
2015,12,02,08,05,5.00
2015,12,02,08,06,5.00
2015,12,02,08,07,5.00
2015,12,02,08,08,5.00
2015,12,02,08,09,5.00
2015,12,02,08,10,5.00
2015,12,02,08,11,5.00
2015,12,02,08,12,5.00
2015,12,02,08,13,6.30
2015,12,02,08,14,7.00
2015,12,02,08,15,7.00
2015,12,02,08,16,7.00
2015,12,02,08,17,7.00
2015,12,02,08,18,7.00
2015,12,02,08,19,7.00
2015,12,02,08,20,7.00
2015,12,02,08,21,7.20
2015,12,02,08,22,9.50
2015,12,02,08,23,11.00
2015,12,02,08,24,11.00
2015,12,02,08,25,11.00
2015,12,02,08,26,11.00
2015,12,02,08,27,11.00
2015,12,02,08,28,11.00
2015,12,02,08,29,11.00
2015,12,02,08,30,11.60
2015,12,02,08,31,12.00
2015,12,02,08,32,11.20
2015,12,02,08,33,10.70
2015,12,02,08,34,9.00
2015,12,02,08,35,9.00
2015,12,02,08,36,9.00
2015,12,02,08,37,9.00
2015,12,02,08,38,9.00
2015,12,02,08,39,7.00
2015,12,02,08,40,7.00
2015,12,02,08,41,7.90
2015,12,02,08,42,9.00
2015,12,02,08,43,10.50
2015,12,02,08,44,9.20
2015,12,02,08,45,7.00
2015,12,02,08,46,7.00
2015,12,02,08,47,7.00
2015,12,02,08,48,7.00
2015,12,02,08,49,7.00
2015,12,02,08,50,7.00
2015,12,02,08,51,7.00
2015,12,02,08,52,7.00
2015,12,02,08,53,8.00
2015,12,02,08,54,10.30
2015,12,02,08,55,11.00
2015,12,02,08,56,11.00
2015,12,02,08,57,11.20
2015,12,02,08,58,12.00
2015,12,02,08,59,12.00
2015,12,02,09,00,12.00
2015,12,02,09,01,15.20
2015,12,02,09,02,18.00
2015,12,02,09,03,18.80
2015,12,02,09,04,18.40
2015,12,02,09,05,19.00
2015,12,02,09,06,21.70
2015,12,02,09,07,23.00
2015,12,02,09,08,25.90
2015,12,02,09,09,26.00
2015,12,02,09,10,26.00
2015,12,02,09,11,25.50
2015,12,02,09,12,25.00
2015,12,02,09,13,23.30
2015,12,02,09,14,23.00
2015,12,02,09,15,22.50
2015,12,02,09,16,21.00
2015,12,02,09,17,21.00
2015,12,02,09,18,21.00
2015,12,02,09,19,21.00
2015,12,02,09,20,21.00
2015,12,02,09,21,21.00
2015,12,02,09,22,21.00
2015,12,02,09,23,21.00
2015,12,02,09,24,22.50
2015,12,02,09,25,23.00
2015,12,02,09,26,25.10
2015,12,02,09,27,26.00
2015,12,02,09,28,25.50
2015,12,02,09,29,25.60
2015,12,02,09,30,26.00
2015,12,02,09,31,26.10
2015,12,02,09,32,28.00
2015,12,02,09,33,29.90
2015,12,02,09,34,37.30
2015,12,02,09,35,44.60
2015,12,02,09,36,46.00
2015,12,02,09,37,39.10
2015,12,02,09,38,32.80
2015,12,02,09,39,32.40
2015,12,02,09,40,33.00
2015,12,02,09,41,36.80
2015,12,02,09,42,35.80
2015,12,02,09,43,41.10
2015,12,02,09,44,35.80
2015,12,02,09,45,32.00
2015,12,02,09,46,29.80
2015,12,02,09,47,28.00
2015,12,02,09,48,28.00
2015,12,02,09,49,28.00
2015,12,02,09,50,28.00
2015,12,02,09,51,28.00
2015,12,02,09,52,28.00
2015,12,02,09,53,28.00
2015,12,02,09,54,29.70
2015,12,02,09,55,30.00
2015,12,02,09,56,29.40
2015,12,02,09,57,28.00
2015,12,02,09,58,28.00
2015,12,02,09,59,28.00
2015,12,02,10,00,26.30
2015,12,02,10,01,25.80
2015,12,02,10,02,24.40
2015,12,02,10,03,23.00
2015,12,02,10,04,23.00
2015,12,02,10,05,23.00
2015,12,02,10,06,24.70
2015,12,02,10,07,22.70
2015,12,02,10,08,21.00
2015,12,02,10,09,21.90
2015,12,02,10,10,23.00
2015,12,02,10,11,24.50
2015,12,02,10,12,25.90
2015,12,02,10,13,26.00
2015,12,02,10,14,26.00
2015,12,02,10,15,26.00
2015,12,02,10,16,26.00
2015,12,02,10,17,26.00
2015,12,02,10,18,26.00
2015,12,02,10,19,26.00
2015,12,02,10,20,25.60
2015,12,02,10,21,25.00
2015,12,02,10,22,25.60
2015,12,02,10,23,27.60
2015,12,02,10,24,28.50
2015,12,02,10,25,32.40
2015,12,02,10,26,30.00
2015,12,02,10,27,33.80
2015,12,02,10,28,34.30
2015,12,02,10,29,30.60
2015,12,02,10,30,30.30
2015,12,02,10,31,33.00
2015,12,02,10,32,33.00
2015,12,02,10,33,36.30
2015,12,02,10,34,41.10
2015,12,02,10,35,37.80
2015,12,02,10,36,41.80
2015,12,02,10,37,40.00
2015,12,02,10,38,40.00
2015,12,02,10,39,38.20
2015,12,02,10,40,32.10
2015,12,02,10,41,26.40
2015,12,02,10,42,23.00
2015,12,02,10,43,23.00
2015,12,02,10,44,21.20
2015,12,02,10,45,18.40
2015,12,02,10,46,18.00
2015,12,02,10,47,18.00
2015,12,02,10,48,18.00
2015,12,02,10,49,18.00
2015,12,02,10,50,17.10
2015,12,02,10,51,16.00
2015,12,02,10,52,17.50
2015,12,02,10,53,18.00
2015,12,02,10,54,18.00
2015,12,02,10,55,17.30
2015,12,02,10,56,16.00
2015,12,02,10,57,16.00
2015,12,02,10,58,17.60
2015,12,02,10,59,16.20
2015,12,02,11,00,16.00
2015,12,02,11,01,16.80
2015,12,02,11,02,18.00
2015,12,02,11,03,18.00
2015,12,02,11,04,18.00
2015,12,02,11,05,18.00
2015,12,02,11,06,18.20
2015,12,02,11,07,19.00
2015,12,02,11,08,19.00
2015,12,02,11,09,19.00
2015,12,02,11,10,19.00
2015,12,02,11,11,20.90
2015,12,02,11,12,21.00
2015,12,02,11,13,21.00
2015,12,02,11,14,20.00
2015,12,02,11,15,19.00
2015,12,02,11,16,19.00
2015,12,02,11,17,19.00
2015,12,02,11,18,19.50
2015,12,02,11,19,21.00
2015,12,02,11,20,21.00
2015,12,02,11,21,21.00
2015,12,02,11,22,19.30
2015,12,02,11,23,18.80
2015,12,02,11,24,18.00
2015,12,02,11,25,18.50
2015,12,02,11,26,19.00
2015,12,02,11,27,19.00
2015,12,02,11,28,19.00
2015,12,02,11,29,19.00
2015,12,02,11,30,19.00
2015,12,02,11,31,19.00
2015,12,02,11,32,19.00
2015,12,02,11,33,19.00
2015,12,02,11,34,19.00
2015,12,02,11,35,19.40
2015,12,02,11,36,21.60
2015,12,02,11,37,24.00
2015,12,02,11,38,25.00
2015,12,02,11,39,23.40
2015,12,02,11,40,23.00
2015,12,02,11,41,22.60
2015,12,02,11,42,21.00
2015,12,02,11,43,21.00
2015,12,02,11,44,21.00
2015,12,02,11,45,21.00
2015,12,02,11,46,22.90
2015,12,02,11,47,23.00
2015,12,02,11,48,23.00
2015,12,02,11,49,23.00
2015,12,02,11,50,24.40
2015,12,02,11,51,25.00
2015,12,02,11,52,24.80
2015,12,02,11,53,23.00
2015,12,02,11,54,23.80
2015,12,02,11,55,25.00
2015,12,02,11,56,25.00
2015,12,02,11,57,25.00
2015,12,02,11,58,23.00
2015,12,02,11,59,23.00
2015,12,02,12,00,22.20
2015,12,02,12,01,21.00
2015,12,02,12,02,21.00
2015,12,02,12,03,21.00
2015,12,02,12,04,22.70
2015,12,02,12,05,21.00
2015,12,02,12,06,21.00
2015,12,02,12,07,21.00
2015,12,02,12,08,21.00
2015,12,02,12,09,21.00
2015,12,02,12,10,20.60
2015,12,02,12,11,19.00
2015,12,02,12,12,19.00
2015,12,02,12,13,20.20
2015,12,02,12,14,21.00
2015,12,02,12,15,21.00
2015,12,02,12,16,21.40
2015,12,02,12,17,23.00
2015,12,02,12,18,23.00
2015,12,02,12,19,23.00
2015,12,02,12,20,21.40
2015,12,02,12,21,21.00
2015,12,02,12,22,21.00
2015,12,02,12,23,21.00
2015,12,02,12,24,21.00
2015,12,02,12,25,21.00
2015,12,02,12,26,21.00
2015,12,02,12,27,21.00
2015,12,02,12,28,21.00
2015,12,02,12,29,21.00
2015,12,02,12,30,21.00
2015,12,02,12,31,21.00
2015,12,02,12,32,22.60
2015,12,02,12,33,23.00
2015,12,02,12,34,23.00
2015,12,02,12,35,23.00
2015,12,02,12,36,24.10
2015,12,02,12,37,25.00
2015,12,02,12,38,25.00
2015,12,02,12,39,24.80
2015,12,02,12,40,23.00
2015,12,02,12,41,23.00
2015,12,02,12,42,21.90
2015,12,02,12,43,21.00
2015,12,02,12,44,21.00
2015,12,02,12,45,21.00
2015,12,02,12,46,21.00
2015,12,02,12,47,21.00
2015,12,02,12,48,21.00
2015,12,02,12,49,21.00
2015,12,02,12,50,21.00
2015,12,02,12,51,23.30
2015,12,02,12,52,25.00
2015,12,02,12,53,25.50
2015,12,02,12,54,26.00
2015,12,02,12,55,26.00
2015,12,02,12,56,26.00
2015,12,02,12,57,24.60
2015,12,02,12,58,23.00
2015,12,02,12,59,22.10
2015,12,02,13,00,21.00
2015,12,02,13,01,21.00
2015,12,02,13,02,21.00
2015,12,02,13,03,21.00
2015,12,02,13,04,20.20
2015,12,02,13,05,19.00
2015,12,02,13,06,19.00
2015,12,02,13,07,19.00
2015,12,02,13,08,20.90
2015,12,02,13,09,21.00
2015,12,02,13,10,21.00
2015,12,02,13,11,21.00
2015,12,02,13,12,21.00
2015,12,02,13,13,21.00
2015,12,02,13,14,21.00
2015,12,02,13,15,21.00
2015,12,02,13,16,21.00
2015,12,02,13,17,23.20
2015,12,02,13,18,25.00
2015,12,02,13,19,25.00
2015,12,02,13,20,23.00
2015,12,02,13,21,22.50
2015,12,02,13,22,21.00
2015,12,02,13,23,19.80
2015,12,02,13,24,19.00
2015,12,02,13,25,18.10
2015,12,02,13,26,16.50
2015,12,02,13,27,20.00
2015,12,02,13,28,23.00
2015,12,02,13,29,24.80
2015,12,02,13,30,28.90
2015,12,02,13,31,32.00
2015,12,02,13,32,35.30
2015,12,02,13,33,37.70
2015,12,02,13,34,42.50
2015,12,02,13,35,46.00
2015,12,02,13,36,41.50
2015,12,02,13,37,35.40
2015,12,02,13,38,32.80
2015,12,02,13,39,32.00
2015,12,02,13,40,32.50
2015,12,02,13,41,32.30
2015,12,02,13,42,32.80
2015,12,02,13,43,36.80
2015,12,02,13,44,39.20
2015,12,02,13,45,39.70
2015,12,02,13,46,38.00
2015,12,02,13,47,37.00
2015,12,02,13,48,41.00
2015,12,02,13,49,43.20
2015,12,02,13,50,37.00
2015,12,02,13,51,37.00
2015,12,02,13,52,30.40
2015,12,02,13,53,27.10
2015,12,02,13,54,28.00
2015,12,02,13,55,32.00
2015,12,02,13,56,32.00
2015,12,02,13,57,32.00
2015,12,02,13,58,32.00
2015,12,02,13,59,29.20
2015,12,02,14,00,26.30
2015,12,02,14,01,28.50
2015,12,02,14,02,35.80
2015,12,02,14,03,46.10
2015,12,02,14,04,47.80
2015,12,02,14,05,46.30
2015,12,02,14,06,44.30
2015,12,02,14,07,39.00
2015,12,02,14,08,37.00
2015,12,02,14,09,36.10
2015,12,02,14,10,33.30
2015,12,02,14,11,30.60
2015,12,02,14,12,28.10
2015,12,02,14,13,25.80
2015,12,02,14,14,24.40
2015,12,02,14,15,22.10
2015,12,02,14,16,19.80
2015,12,02,14,17,18.20
2015,12,02,14,18,18.90
2015,12,02,14,19,18.00
2015,12,02,14,20,18.00
2015,12,02,14,21,18.00
2015,12,02,14,22,18.00
2015,12,02,14,23,18.00
2015,12,02,14,24,18.00
2015,12,02,14,25,18.00
2015,12,02,14,26,18.00
2015,12,02,14,27,18.00
2015,12,02,14,28,16.70
2015,12,02,14,29,16.00
2015,12,02,14,30,17.90
2015,12,02,14,31,18.00
2015,12,02,14,32,18.00
2015,12,02,14,33,16.90
2015,12,02,14,34,16.00
2015,12,02,14,35,16.00
2015,12,02,14,36,16.00
2015,12,02,14,37,16.00
2015,12,02,14,38,16.00
2015,12,02,14,39,14.80
2015,12,02,14,40,14.00
2015,12,02,14,41,14.00
2015,12,02,14,42,14.00
2015,12,02,14,43,14.00
2015,12,02,14,44,14.00
2015,12,02,14,45,14.00
2015,12,02,14,46,14.00
2015,12,02,14,47,14.00
2015,12,02,14,48,14.00
2015,12,02,14,49,14.00
2015,12,02,14,50,13.20
2015,12,02,14,51,12.00
2015,12,02,14,52,12.00
2015,12,02,14,53,12.00
2015,12,02,14,54,12.40
2015,12,02,14,55,14.00
2015,12,02,14,56,14.00
2015,12,02,14,57,14.00
2015,12,02,14,58,14.00
2015,12,02,14,59,12.10
2015,12,02,15,00,12.00
2015,12,02,15,01,12.60
2015,12,02,15,02,14.00
2015,12,02,15,03,12.70
2015,12,02,15,04,12.00
2015,12,02,15,05,12.00
2015,12,02,15,06,12.40
2015,12,02,15,07,14.00
2015,12,02,15,08,14.00
2015,12,02,15,09,12.70
2015,12,02,15,10,12.00
2015,12,02,15,11,12.00
2015,12,02,15,12,11.80
2015,12,02,15,13,11.00
2015,12,02,15,14,11.00
2015,12,02,15,15,11.00
2015,12,02,15,16,11.00
2015,12,02,15,17,11.00
2015,12,02,15,18,11.00
2015,12,02,15,19,10.20
2015,12,02,15,20,9.00
2015,12,02,15,21,9.00
2015,12,02,15,22,7.30
2015,12,02,15,23,7.00
2015,12,02,15,24,7.00
2015,12,02,15,25,7.00
2015,12,02,15,26,7.00
2015,12,02,15,27,7.00
2015,12,02,15,28,7.00
2015,12,02,15,29,7.00
2015,12,02,15,30,7.00
2015,12,02,15,31,7.00
2015,12,02,15,32,7.00
2015,12,02,15,33,7.00
2015,12,02,15,34,7.00
2015,12,02,15,35,7.00
2015,12,02,15,36,7.00
2015,12,02,15,37,7.00
2015,12,02,15,38,7.00
2015,12,02,15,39,5.40
2015,12,02,15,40,5.00
2015,12,02,15,41,5.00
2015,12,02,15,42,5.00
2015,12,02,15,43,5.00
2015,12,02,15,44,5.00
2015,12,02,15,45,5.00
2015,12,02,15,46,5.00
2015,12,02,15,47,5.00
2015,12,02,15,48,3.20
2015,12,02,15,49,0.00
2015,12,02,15,50,0.00
2015,12,02,15,51,0.00
2015,12,02,15,52,0.00
2015,12,02,15,53,0.00
2015,12,02,15,54,0.00
2015,12,02,15,55,0.00
2015,12,02,15,56,0.00
2015,12,02,15,57,0.00
2015,12,02,15,58,0.00
2015,12,02,15,59,0.00
2015,12,02,16,00,0.00
2015,12,02,16,01,0.00
2015,12,02,16,02,0.00
2015,12,02,16,03,0.00
2015,12,02,16,04,0.00
2015,12,02,16,05,0.00
2015,12,02,16,06,0.00
2015,12,02,16,07,0.00
2015,12,02,16,08,0.00
2015,12,02,16,09,0.00
2015,12,02,16,10,0.00
2015,12,02,16,11,0.00
2015,12,02,16,12,0.00
2015,12,02,16,13,0.00
2015,12,02,16,14,0.00
2015,12,02,16,15,0.00
2015,12,02,16,16,0.00
2015,12,02,16,17,0.00
2015,12,02,16,18,0.00
2015,12,02,16,19,0.00
2015,12,02,16,20,0.00
2015,12,02,16,21,0.00
2015,12,02,16,22,0.00
2015,12,02,16,23,0.00
2015,12,02,16,24,0.00
2015,12,02,16,25,0.00
2015,12,02,16,26,0.00
2015,12,02,16,27,0.00
2015,12,02,16,28,0.00
2015,12,02,16,29,0.00
2015,12,02,16,30,0.00
2015,12,02,16,31,0.00
2015,12,02,16,32,0.00
2015,12,02,16,33,0.00
2015,12,02,16,34,0.00
2015,12,02,16,35,0.00
2015,12,02,16,36,0.00
2015,12,02,16,37,0.00
2015,12,02,16,38,0.00
2015,12,02,16,39,0.00
2015,12,02,16,40,0.00
2015,12,02,16,41,0.00
2015,12,02,16,42,0.00
2015,12,02,16,43,0.00
2015,12,02,16,44,0.00
2015,12,02,16,45,0.00
2015,12,02,16,46,0.00
2015,12,02,16,47,0.00
2015,12,02,16,48,0.00
2015,12,02,16,49,0.00
2015,12,02,16,50,0.00
2015,12,02,16,51,0.00
2015,12,02,16,52,0.00
2015,12,02,16,53,0.00
2015,12,02,16,54,0.00
2015,12,02,16,55,0.00
2015,12,02,16,56,0.00
2015,12,02,16,57,0.00
2015,12,02,16,58,0.00
2015,12,02,16,59,0.00
2015,12,02,17,00,0.00
2015,12,02,17,01,0.00
2015,12,02,17,02,0.00
2015,12,02,17,03,0.00
2015,12,02,17,04,0.00
2015,12,02,17,05,0.00
2015,12,02,17,06,0.00
2015,12,02,17,07,0.00
2015,12,02,17,08,0.00
2015,12,02,17,09,0.00
2015,12,02,17,10,0.00
2015,12,02,17,11,0.00
2015,12,02,17,12,0.00
2015,12,02,17,13,0.00
2015,12,02,17,14,0.00
2015,12,02,17,15,0.00
2015,12,02,17,16,0.00
2015,12,02,17,17,0.00
2015,12,02,17,18,0.00
2015,12,02,17,19,0.00
2015,12,02,17,20,0.00
2015,12,02,17,21,0.00
2015,12,02,17,22,0.00
2015,12,02,17,23,0.00
2015,12,02,17,24,0.00
2015,12,02,17,25,0.00
2015,12,02,17,26,0.00
2015,12,02,17,27,0.00
2015,12,02,17,28,0.00
2015,12,02,17,29,0.00
2015,12,02,17,30,0.00
2015,12,02,17,31,0.00
2015,12,02,17,32,0.00
2015,12,02,17,33,0.00
2015,12,02,17,34,0.00
2015,12,02,17,35,0.00
2015,12,02,17,36,0.00
2015,12,02,17,37,0.00
2015,12,02,17,38,0.00
2015,12,02,17,39,0.00
2015,12,02,17,40,0.00
2015,12,02,17,41,0.00
2015,12,02,17,42,0.00
2015,12,02,17,43,0.00
2015,12,02,17,44,0.00
2015,12,02,17,45,0.00
2015,12,02,17,46,0.00
2015,12,02,17,47,0.00
2015,12,02,17,48,0.00